Buckeye, AZ

6:21 AM MST on April 24, 2017 (GMT -0700)
Buckeye Municipal

Weather History for KBXK - November, 2012

Change the Weather History Date:

Tuesday, November 6, 2012

  Actual Average (KGYR) Record (KGYR)
Temperature  
Mean Temperature 69 °F -  
Max Temperature 87 °F 75 °F 91 °F (2007)
Min Temperature 51 °F 50 °F 42 °F (2002)
Cooling Degree Days 4    
Growing Degree Days 19 (Base 50)    
Moisture  
Dew Point 28 °F    
Average Humidity 23    
Maximum Humidity 38    
Minimum Humidity 12    
Precipitation  
Precipitation 0.00 in - - ()
Sea Level Pressure  
Sea Level Pressure 30.02 in    
Wind  
Wind Speed 4 mph (NE)    
Max Wind Speed 12 mph    
Max Gust Speed -    
Visibility 9 miles    
Events      
Averages and records for this station are not official NWS values.
T = Trace of Precipitation, MM = Missing Value Source: NWS Daily Summary

Daily Weather History Graph

Daily Weather History Graph

Search for Another Location

Airport or City:

Trip Planner

Search our weather history database for the weather conditions in past years. The results will help you decide how hot, cold, wet, or windy it might be!

Date:

Astronomy

Nov. 06, 2012 Rise Set
Actual Time 6:54 AM MST 5:34 PM MST
Civil Twilight 6:28 AM MST 5:59 PM MST
Nautical Twilight 5:58 AM MST 6:29 PM MST
Astronomical Twilight 5:29 AM MST 6:58 PM MST
Moon No Moon Rise 12:51 PM MST (11/6)
Length of Visible Light 11h 31m
Length of Day
10h 39m
Waning Gibbous, 52% of the Moon is Illuminated
Nov 6
Waning Gibbous
Nov 6
Last Quarter
Nov 13
New
Nov 20
First Quarter
Nov 28
Full

Hourly Weather History & Observations

Time (MST) Temp. Dew Point Humidity Pressure Visibility Wind Dir Wind Speed Gust Speed Precip Events Conditions
12:15 AM 66.2 °F 23.0 °F 19% 30.02 in 9.0 mi ENE 3.5 mph - N/A   Clear
12:35 AM 66.2 °F 24.8 °F 21% 30.02 in 10.0 mi NE 4.6 mph - N/A   Clear
12:55 AM 62.6 °F 24.8 °F 24% 30.03 in 10.0 mi ENE 6.9 mph - N/A   Clear
1:15 AM 66.2 °F 24.8 °F 21% 30.03 in 10.0 mi East 6.9 mph - N/A   Clear
1:35 AM 62.6 °F 24.8 °F 24% 30.04 in 9.0 mi Calm Calm - N/A   Clear
1:55 AM 62.6 °F 24.8 °F 24% 30.03 in 9.0 mi Calm Calm - N/A   Clear
2:15 AM 64.4 °F 23.0 °F 21% 30.03 in 8.0 mi Calm Calm - N/A   Clear
2:35 AM 60.8 °F 24.8 °F 25% 30.03 in 10.0 mi Calm Calm - N/A   Clear
2:55 AM 60.8 °F 26.6 °F 27% 30.03 in 10.0 mi SE 4.6 mph - N/A   Clear
3:15 AM 59.0 °F 26.6 °F 29% 30.03 in 10.0 mi Calm Calm - N/A   Clear
3:35 AM 59.0 °F 26.6 °F 29% 30.03 in 10.0 mi ENE 3.5 mph - N/A   Clear
3:55 AM 55.4 °F 24.8 °F 31% 30.03 in 8.0 mi North 3.5 mph - N/A   Clear
4:15 AM 55.4 °F 24.8 °F 31% 30.03 in 7.0 mi NNE 4.6 mph - N/A   Clear
4:35 AM 53.6 °F 23.0 °F 30% 30.03 in 8.0 mi Calm Calm - N/A   Clear
4:55 AM 53.6 °F 23.0 °F 30% 30.03 in 9.0 mi Calm Calm - N/A   Clear
5:15 AM 53.6 °F 24.8 °F 33% 30.04 in 6.0 mi West 3.5 mph - N/A   Clear
5:35 AM 53.6 °F 23.0 °F 30% 30.04 in 10.0 mi Calm Calm - N/A   Clear
5:55 AM 53.6 °F 23.0 °F 30% 30.04 in 10.0 mi WNW 5.8 mph - N/A   Clear
6:15 AM 53.6 °F 23.0 °F 30% 30.05 in 7.0 mi WNW 5.8 mph - N/A   Clear
6:35 AM 51.8 °F 26.6 °F 38% 30.06 in 10.0 mi West 4.6 mph - N/A   Clear
6:55 AM 53.6 °F 23.0 °F 30% 30.07 in 9.0 mi West 3.5 mph - N/A   Clear
7:15 AM 53.6 °F 23.0 °F 30% 30.07 in 8.0 mi North 8.1 mph - N/A   Clear
7:35 AM 55.4 °F 23.0 °F 29% 30.08 in 10.0 mi NNE 6.9 mph - N/A   Clear
7:55 AM 57.2 °F 23.0 °F 27% 30.08 in 10.0 mi NNE 3.5 mph - N/A   Clear
8:15 AM 60.8 °F 24.8 °F 25% 30.09 in 10.0 mi Calm Calm - N/A   Clear
8:35 AM 64.4 °F 24.8 °F 22% 30.10 in 7.0 mi Calm Calm - N/A   Clear
8:55 AM 64.4 °F 28.4 °F 26% 30.10 in 7.0 mi Calm Calm - N/A   Clear
9:15 AM 66.2 °F 26.6 °F 23% 30.10 in 7.0 mi Calm Calm - N/A   Clear
9:35 AM 68.0 °F 30.2 °F 24% 30.10 in 10.0 mi Calm Calm - N/A   Clear
9:55 AM 68.0 °F 35.6 °F 30% 30.10 in 8.0 mi Calm Calm - N/A   Clear
10:15 AM 69.8 °F 32.0 °F 25% 30.10 in 10.0 mi Calm Calm - N/A   Clear
10:35 AM 71.6 °F 35.6 °F 27% 30.09 in 9.0 mi Calm Calm - N/A   Clear
10:55 AM 75.2 °F 32.0 °F 21% 30.08 in 10.0 mi ESE 5.8 mph - N/A   Clear
11:15 AM 77.0 °F 37.4 °F 24% 30.08 in 9.0 mi SE 5.8 mph - N/A   Clear
11:35 AM 80.6 °F 35.6 °F 20% 30.07 in 10.0 mi ESE 9.2 mph - N/A   Clear
11:55 AM 82.4 °F 35.6 °F 19% 30.06 in 10.0 mi ESE 10.4 mph - N/A   Clear
12:15 PM 82.4 °F 32.0 °F 16% 30.05 in 10.0 mi ESE 11.5 mph - N/A   Clear
12:35 PM 84.2 °F 32.0 °F 15% 30.04 in 10.0 mi ESE 10.4 mph - N/A   Clear
12:55 PM 84.2 °F 32.0 °F 15% 30.03 in 10.0 mi ESE 9.2 mph - N/A   Clear
1:15 PM 86.0 °F 32.0 °F 14% 30.02 in 10.0 mi ESE 9.2 mph - N/A   Clear
1:35 PM 86.0 °F 32.0 °F 14% 30.00 in 10.0 mi ESE 11.5 mph - N/A   Clear
1:55 PM 86.0 °F 30.2 °F 13% 29.99 in 10.0 mi ESE 9.2 mph - N/A   Clear
2:15 PM 86.0 °F 28.4 °F 12% 29.99 in 10.0 mi ESE 9.2 mph - N/A   Clear
2:35 PM 86.0 °F 28.4 °F 12% 29.98 in 10.0 mi ESE 8.1 mph - N/A   Clear
2:55 PM 86.0 °F 32.0 °F 14% 29.98 in 10.0 mi ESE 6.9 mph - N/A   Clear
3:15 PM 86.0 °F 32.0 °F 14% 29.98 in 10.0 mi SE 5.8 mph - N/A   Clear
3:35 PM 87.8 °F 32.0 °F 14% 29.98 in 10.0 mi SE 6.9 mph - N/A   Clear
3:55 PM 87.8 °F 32.0 °F 14% 29.98 in 10.0 mi SE 4.6 mph - N/A   Clear
4:15 PM 86.0 °F 35.6 °F 17% 29.97 in 9.0 mi Calm Calm - N/A   Clear
4:35 PM 86.0 °F 35.6 °F 17% 29.97 in 7.0 mi Calm Calm - N/A   Clear
4:55 PM 84.2 °F 39.2 °F 20% 29.97 in 6.0 mi Calm Calm - N/A   Clear
5:15 PM 84.2 °F 39.2 °F 20% 29.97 in 9.0 mi Calm Calm - N/A   Clear
5:35 PM 82.4 °F 39.2 °F 21% 29.97 in 9.0 mi Calm Calm - N/A   Clear
5:55 PM 80.6 °F 37.4 °F 21% 29.97 in 10.0 mi Calm Calm - N/A   Clear
6:15 PM 77.0 °F 33.8 °F 21% 29.98 in 10.0 mi Calm Calm - N/A   Clear
6:35 PM 75.2 °F 32.0 °F 21% 29.98 in 10.0 mi NNE 3.5 mph - N/A   Clear
6:55 PM 73.4 °F 32.0 °F 22% 29.98 in 10.0 mi Calm Calm - N/A   Clear
7:15 PM 71.6 °F 30.2 °F 22% 29.98 in 10.0 mi NE 3.5 mph - N/A   Clear
7:35 PM 69.8 °F 28.4 °F 21% 29.98 in 10.0 mi North 4.6 mph - N/A   Clear
7:55 PM 68.0 °F 26.6 °F 21% 29.98 in 10.0 mi NNE 5.8 mph - N/A   Clear
8:15 PM 68.0 °F 26.6 °F 21% 29.98 in 10.0 mi North 4.6 mph - N/A   Clear
8:35 PM 66.2 °F 26.6 °F 23% 29.99 in 10.0 mi NNE 4.6 mph - N/A   Clear
8:55 PM 66.2 °F 26.6 °F 23% 29.99 in 10.0 mi NNE 3.5 mph - N/A   Clear
9:15 PM 66.2 °F 24.8 °F 21% 29.99 in 10.0 mi North 3.5 mph - N/A   Clear
9:35 PM 64.4 °F 24.8 °F 22% 30.00 in 10.0 mi North 5.8 mph - N/A   Clear
9:55 PM 64.4 °F 24.8 °F 22% 30.00 in 7.0 mi NNW 9.2 mph - N/A   Clear
10:15 PM 64.4 °F 24.8 °F 22% 30.00 in 10.0 mi NNW 8.1 mph - N/A   Clear
10:35 PM 64.4 °F 24.8 °F 22% 30.00 in 10.0 mi North 8.1 mph - N/A   Clear
10:55 PM 64.4 °F 24.8 °F 22% 30.00 in 10.0 mi North 9.2 mph - N/A   Clear
11:15 PM 62.6 °F 24.8 °F 24% 30.00 in 10.0 mi North 9.2 mph - N/A   Clear
11:35 PM 62.6 °F 24.8 °F 24% 30.01 in 10.0 mi NNE 4.6 mph - N/A   Clear
11:55 PM 62.6 °F 24.8 °F 24% 30.01 in 10.0 mi North 8.1 mph - N/A   Clear